Las Vegas, NM

9:13 PM MDT on October 22, 2017 (GMT -0600)
Las Vegas Municipal

Weather History for KLVS - March, 2014

Change the Weather History Date:

Wednesday, March 5, 2014

  Actual Average Record
Temperature  
Mean Temperature 40 °F -  
Max Temperature 50 °F 50 °F 67 °F (1975)
Min Temperature 28 °F 21 °F -9 °F (1948)
Degree Days  
Heating Degree Days 25    
Moisture  
Dew Point 21 °F    
Average Humidity 51    
Maximum Humidity 70    
Minimum Humidity 31    
Precipitation  
Precipitation 0.00 in - - ()
Sea Level Pressure  
Sea Level Pressure 30.00 in    
Wind  
Wind Speed 16 mph (East)    
Max Wind Speed 25 mph    
Max Gust Speed 33 mph    
Visibility 10 miles    
Events      
Averages and records for this station are not official NWS values.
T = Trace of Precipitation, MM = Missing Value Source: NWS Daily Summary

Daily Weather History Graph

Daily Weather History Graph

Search for Another Location

Airport or City:

Trip Planner

Search our weather history database for the weather conditions in past years. The results will help you decide how hot, cold, wet, or windy it might be!

Date:

Astronomy

Mar. 05, 2014 Rise Set
Actual Time 6:25 AM MST 5:59 PM MST
Civil Twilight 5:59 AM MST 6:24 PM MST
Nautical Twilight 5:30 AM MST 6:54 PM MST
Astronomical Twilight 5:00 AM MST 7:24 PM MST
Moon 9:02 AM MST (3/5) 10:59 PM MST (3/5)
Length of Visible Light 12h 25m
Length of Day
11h 34m
Waxing Crescent, 24% of the Moon is Illuminated
Mar 5
Waxing Crescent
Mar 8
First Quarter
Mar 16
Full
Mar 23
Last Quarter
Mar 30
New

Hourly Weather History & Observations

Time (MST) Temp. Windchill Dew Point Humidity Pressure Visibility Wind Dir Wind Speed Gust Speed Precip Events Conditions
12:53 AM 39.9 °F 31.8 °F 26.1 °F 58% 29.69 in 10.0 mi North 15.0 mph - N/A   Partly Cloudy
1:53 AM 39.0 °F 29.6 °F 26.1 °F 60% 29.73 in 10.0 mi North 18.4 mph - N/A   Clear
2:53 AM 36.0 °F 24.2 °F 24.1 °F 62% 29.78 in 10.0 mi NNE 24.2 mph - N/A   Clear
3:53 AM 34.0 °F 22.4 °F 25.0 °F 70% 29.84 in 10.0 mi NNE 20.7 mph - N/A   Partly Cloudy
4:53 AM 34.0 °F 23.0 °F 25.0 °F 70% 29.90 in 10.0 mi NE 18.4 mph - N/A   Partly Cloudy
5:53 AM 33.1 °F 20.3 °F 23.0 °F 66% 29.94 in 10.0 mi NE 24.2 mph 33.4 mph N/A   Clear
6:53 AM 30.9 °F 18.7 °F 21.9 °F 69% 29.98 in 10.0 mi NE 19.6 mph - N/A   Clear
7:53 AM 37.0 °F 27.4 °F 23.0 °F 57% 29.99 in 10.0 mi NNE 17.3 mph - N/A   Clear
8:53 AM 42.1 °F 32.1 °F 21.0 °F 43% 29.98 in 10.0 mi NE 25.3 mph 29.9 mph N/A   Clear
9:53 AM 45.0 °F 37.4 °F 21.9 °F 40% 30.01 in 10.0 mi NE 18.4 mph - N/A   Clear
10:53 AM 46.0 °F 41.0 °F 21.0 °F 37% 30.03 in 10.0 mi East 10.4 mph - N/A   Scattered Clouds
11:53 AM 48.0 °F - 21.9 °F 36% 30.02 in 10.0 mi ENE 11.5 mph 16.1 mph N/A   Clear
12:53 PM 48.0 °F - 19.9 °F 33% 29.99 in 10.0 mi Calm Calm - N/A   Clear
1:53 PM 48.0 °F - 19.0 °F 32% 29.99 in 10.0 mi Variable 4.6 mph - N/A   Scattered Clouds
2:53 PM 48.9 °F - 19.0 °F 31% 30.01 in 10.0 mi SE 8.1 mph - N/A   Overcast
3:53 PM 50.0 °F - 19.9 °F 31% 30.02 in 10.0 mi SE 10.4 mph - N/A   Scattered Clouds
4:53 PM 48.9 °F - 21.0 °F 33% 30.03 in 10.0 mi SSE 12.7 mph - N/A   Partly Cloudy
5:53 PM 44.1 °F 38.1 °F 21.0 °F 40% 30.07 in 10.0 mi South 11.5 mph - N/A   Clear
6:53 PM 35.1 °F 27.4 °F 18.0 °F 50% 30.16 in 10.0 mi SSE 10.4 mph - N/A   Clear
7:53 PM 33.1 °F 24.9 °F 18.0 °F 54% 30.16 in 10.0 mi SSE 10.4 mph - N/A   Clear
8:53 PM 30.9 °F 21.7 °F 18.0 °F 59% 30.15 in 10.0 mi SW 11.5 mph - N/A   Clear
9:53 PM 32.0 °F 22.5 °F 19.9 °F 61% 30.14 in 10.0 mi SSW 12.7 mph - N/A   Clear
10:53 PM 32.0 °F 21.2 °F 21.0 °F 64% 30.14 in 10.0 mi South 16.1 mph - N/A   Clear
11:53 PM 28.9 °F 18.6 °F 19.9 °F 69% 30.14 in 10.0 mi South 12.7 mph - N/A   Clear